Location: Kelshall
(52.0000°N, 0.0500°W)
Time: 07:11:40
(UTC+00:00)

ISS - Visible Passes

Search period start: 26 November 2020 00:00
Search period end: 06 December 2020 00:00
Orbit: 418 x 421 km, 51.6° (Epoch: 26 November)

Date Brightness Start Highest point End Pass type
(mag) Time Alt. Az. Time Alt. Az. Time Alt. Az.
26 Nov -3.0 17:09:58 10° SW 17:13:11 41° SSE 17:15:21 18° E visible
26 Nov -1.8 18:46:28 10° W 18:48:19 30° W 18:48:19 30° W visible
27 Nov -3.9 17:58:59 10° WSW 18:02:22 78° S 18:02:42 68° ESE visible
28 Nov -3.6 17:11:32 10° WSW 17:14:53 67° SSE 17:17:04 20° E visible
28 Nov -1.7 18:48:16 10° W 18:50:01 28° W 18:50:01 28° W visible
29 Nov -3.9 18:00:46 10° W 18:04:09 87° S 18:04:23 76° ESE visible
30 Nov -3.8 17:13:14 10° W 17:16:37 85° S 17:18:46 21° E visible
30 Nov -1.6 18:50:03 10° W 18:51:43 26° W 18:51:43 26° W visible
01 Dec -3.8 18:02:31 10° W 18:05:53 75° SSW 18:06:07 71° SSE visible
02 Dec -3.8 17:14:58 10° W 17:18:21 84° S 17:20:34 20° E visible
02 Dec -1.4 18:51:49 10° W 18:53:32 24° WSW 18:53:32 24° WSW visible
03 Dec -3.7 16:27:25 10° W 16:30:48 87° S 16:34:11 10° E visible
03 Dec -3.2 18:04:14 10° W 18:07:31 50° SSW 18:08:02 45° SSE visible
04 Dec -3.4 17:16:40 10° W 17:20:00 64° SSW 17:22:38 15° ESE visible
04 Dec -1.2 18:53:47 10° W 18:55:36 19° SW 18:55:36 19° SW visible
05 Dec -3.6 16:29:05 10° W 16:32:27 75° SSW 16:35:49 10° ESE visible
05 Dec -2.0 18:06:01 10° W 18:08:59 29° SSW 18:10:20 21° S visible
